Whiteville, NC

6:05 PM EDT on April 23, 2017 (GMT -0400)
Columbus County Municipal

Weather History for KCPC - February, 2013

Change the Weather History Date:

Thursday, February 7, 2013

  Actual Average (KCRE) Record (KCRE)
Temperature  
Mean Temperature 46 °F -  
Max Temperature 54 °F 53 °F 75 °F (1989)
Min Temperature 40 °F 37 °F 24 °F (1996)
Degree Days  
Heating Degree Days 18    
Moisture  
Dew Point 45 °F    
Average Humidity 91    
Maximum Humidity 97    
Minimum Humidity 74    
Precipitation  
Precipitation 0.50 in - - ()
Sea Level Pressure  
Sea Level Pressure 30.12 in    
Wind  
Wind Speed 7 mph (NE)    
Max Wind Speed 16 mph    
Max Gust Speed 25 mph    
Visibility 7 miles    
Events Rain    
Averages and records for this station are not official NWS values.
T = Trace of Precipitation, MM = Missing Value Source: NWS Daily Summary

Daily Weather History Graph

Daily Weather History Graph

Search for Another Location

Airport or City:

Trip Planner

Search our weather history database for the weather conditions in past years. The results will help you decide how hot, cold, wet, or windy it might be!

Date:

Astronomy

Feb. 07, 2013 Rise Set
Actual Time 7:07 AM EST 5:51 PM EST
Civil Twilight 6:41 AM EST 6:17 PM EST
Nautical Twilight 6:11 AM EST 6:46 PM EST
Astronomical Twilight 5:42 AM EST 7:16 PM EST
Moon 4:41 AM EST (2/7) 3:17 PM EST (2/7)
Length of Visible Light 11h 35m
Length of Day
10h 43m
Waning Crescent, 9% of the Moon is Illuminated
Feb 7
Waning Crescent
Feb 10
New
Feb 17
First Quarter
Feb 25
Full
Mar 4
Last Quarter

Hourly Weather History & Observations

Time (EST) Temp. Windchill Dew Point Humidity Pressure Visibility Wind Dir Wind Speed Gust Speed Precip Events Conditions
12:15 AM 42.6 °F 39.0 °F 40.3 °F 91% 30.23 in 10.0 mi NNE 5.8 mph - N/A   Clear
12:35 AM 45.1 °F 42.0 °F 41.5 °F 87% 30.22 in 10.0 mi NE 5.8 mph - N/A   Clear
12:55 AM 45.7 °F 41.5 °F 41.9 °F 87% 30.21 in 10.0 mi NE 8.1 mph - N/A   Clear
1:15 AM 45.0 °F 40.6 °F 41.5 °F 88% 30.21 in 10.0 mi NNE 8.1 mph - N/A   Clear
1:35 AM 44.8 °F 39.9 °F 41.4 °F 88% 30.21 in 10.0 mi NE 9.2 mph - N/A   Clear
1:55 AM 44.1 °F 40.1 °F 41.2 °F 90% 30.21 in 10.0 mi NE 6.9 mph - N/A   Clear
2:15 AM 43.9 °F 39.9 °F 41.2 °F 90% 30.22 in 10.0 mi NE 6.9 mph - N/A   Clear
2:35 AM 43.7 °F 39.7 °F 41.0 °F 90% 30.22 in 10.0 mi NE 6.9 mph - N/A   Clear
2:55 AM 43.0 °F 38.8 °F 41.0 °F 93% 30.22 in 10.0 mi NE 6.9 mph - N/A   Clear
3:15 AM 42.8 °F 38.6 °F 41.0 °F 93% 30.22 in 10.0 mi NE 6.9 mph - N/A   Clear
3:35 AM 42.8 °F 38.6 °F 41.0 °F 93% 30.21 in 10.0 mi NE 6.9 mph - N/A   Clear
3:55 AM 42.4 °F 38.8 °F 41.0 °F 95% 30.21 in 7.0 mi NE 5.8 mph - N/A   Clear
4:15 AM 42.3 °F 37.9 °F 40.8 °F 95% 30.21 in 7.0 mi NE 6.9 mph - N/A   Clear
4:35 AM 42.1 °F 39.2 °F 40.6 °F 95% 30.22 in 7.0 mi NE 4.6 mph - N/A   Clear
4:55 AM 41.9 °F 38.2 °F 40.5 °F 95% 30.22 in 7.0 mi NE 5.8 mph - N/A   Clear
5:15 AM 41.5 °F 39.6 °F 40.3 °F 95% 30.22 in 7.0 mi NE 3.5 mph - N/A   Clear
5:35 AM 41.2 °F 38.2 °F 40.1 °F 96% 30.22 in 7.0 mi NNE 4.6 mph - N/A   Clear
5:55 AM 41.0 °F 38.0 °F 40.1 °F 97% 30.24 in 5.0 mi NNE 4.6 mph - N/A   Clear
6:15 AM 41.0 °F 39.0 °F 39.9 °F 96% 30.24 in 5.0 mi NNE 3.5 mph - N/A   Clear
6:35 AM 40.8 °F 37.8 °F 39.9 °F 97% 30.24 in 5.0 mi NNE 4.6 mph - N/A   Clear
6:55 AM 41.0 °F 37.1 °F 39.9 °F 96% 30.23 in 5.0 mi NNE 5.8 mph - N/A   Clear
7:15 AM 41.2 °F 36.0 °F 40.1 °F 96% 30.23 in 5.0 mi NE 8.1 mph - N/A   Clear
7:35 AM 41.5 °F 35.9 °F 40.5 °F 96% 30.23 in 5.0 mi NE 9.2 mph - N/A   Clear
7:55 AM 42.1 °F 37.1 °F 40.5 °F 94% 30.22 in 5.0 mi NE 8.1 mph - N/A   Clear
8:15 AM 42.8 °F 38.0 °F 41.0 °F 93% 30.23 in 5.0 mi NE 8.1 mph - N/A   Clear
8:35 AM 43.2 °F 39.0 °F 41.2 °F 93% 30.24 in 5.0 mi NE 6.9 mph - N/A   Clear
8:55 AM 44.4 °F 41.2 °F 41.9 °F 91% 30.24 in 7.0 mi NNE 5.8 mph - N/A   Clear
9:15 AM 45.1 °F 40.8 °F 42.8 °F 91% 30.24 in 7.0 mi NE 8.1 mph - N/A   Clear
9:35 AM 46.4 °F 42.9 °F 43.5 °F 90% 30.24 in 7.0 mi NE 6.9 mph - N/A   Clear
9:55 AM 47.3 °F - 43.7 °F 87% 30.22 in 10.0 mi NE 8.1 mph - N/A   Clear
10:15 AM 48.4 °F - 43.9 °F 84% 30.22 in 10.0 mi NE 8.1 mph - N/A   Clear
10:35 AM 50.0 °F - 44.6 °F 82% 30.21 in 10.0 mi NE 8.1 mph - N/A   Clear
10:55 AM 50.9 °F - 44.6 °F 79% 30.21 in 10.0 mi NE 8.1 mph - N/A   Clear
11:15 AM 52.2 °F - 45.1 °F 77% 30.20 in 10.0 mi NNE 6.9 mph - N/A   Clear
11:35 AM 53.4 °F - 45.5 °F 75% 30.19 in 10.0 mi NE 5.8 mph - N/A   Clear
11:55 AM 53.8 °F - 45.7 °F 74% 30.18 in 10.0 mi NNE 5.8 mph - N/A   Clear
12:15 PM 53.8 °F - 45.5 °F 74% 30.18 in 10.0 mi NNE 5.8 mph - N/A   Clear
12:35 PM 53.8 °F - 45.7 °F 74% 30.17 in 10.0 mi NNE 5.8 mph - N/A   Scattered Clouds
12:55 PM 53.6 °F - 45.7 °F 75% 30.16 in 10.0 mi NNE 6.9 mph - N/A   Scattered Clouds
1:15 PM 53.8 °F - 45.9 °F 75% 30.14 in 10.0 mi NNE 5.8 mph - N/A   Clear
1:35 PM 53.6 °F - 46.6 °F 77% 30.13 in 7.0 mi NNE 4.6 mph - N/A Rain Light Rain
1:55 PM 52.2 °F - 48.6 °F 88% 30.13 in 5.0 mi NNE 5.8 mph - 0.01 in Rain Light Rain
2:15 PM 52.2 °F - 49.6 °F 91% 30.11 in 7.0 mi NNE 5.8 mph - 0.01 in Rain Light Rain
2:35 PM 52.2 °F - 50.0 °F 92% 30.10 in 5.0 mi NE 6.9 mph - 0.02 in Rain Rain
2:55 PM 52.2 °F - 50.4 °F 94% 30.09 in 5.0 mi NE 5.8 mph - 0.02 in   Drizzle
3:15 PM 52.2 °F - 50.5 °F 94% 30.08 in 5.0 mi NNE 4.6 mph - N/A Rain Light Rain
3:35 PM 52.0 °F - 50.9 °F 96% 30.08 in 4.0 mi NNE 6.9 mph - 0.01 in Rain Light Rain
3:55 PM 52.0 °F - 50.9 °F 96% 30.07 in 4.0 mi NNE 6.9 mph - 0.03 in Rain Rain
4:15 PM 52.0 °F - 50.9 °F 96% 30.06 in 3.0 mi NNE 5.8 mph - 0.03 in Rain Rain
4:35 PM 51.8 °F - 50.9 °F 97% 30.06 in 3.0 mi North 4.6 mph - 0.05 in Rain Rain
4:55 PM 51.8 °F - 50.9 °F 97% 30.05 in 3.0 mi NNE 6.9 mph - 0.08 in Rain Rain
5:15 PM 51.8 °F - 50.9 °F 97% 30.04 in 5.0 mi NE 5.8 mph - 0.02 in Rain Rain
5:35 PM 51.6 °F - 50.9 °F 97% 30.03 in 5.0 mi NE 11.5 mph 17.3 mph 0.05 in Rain Rain
5:55 PM 51.1 °F - 50.4 °F 97% 30.02 in 5.0 mi NNE 9.2 mph 17.3 mph 0.08 in Rain Rain
6:15 PM 50.9 °F - 50.0 °F 97% 30.01 in 7.0 mi NNE 8.1 mph - 0.02 in Rain Light Rain
6:35 PM 50.7 °F - 49.8 °F 97% 30.02 in 7.0 mi NNE 5.8 mph - 0.04 in Rain Rain
6:55 PM 50.4 °F - 49.5 °F 97% 30.02 in 5.0 mi North 5.8 mph - 0.08 in Rain Rain
7:15 PM 50.2 °F - 49.3 °F 97% 30.02 in 4.0 mi NE 8.1 mph - 0.05 in Rain Heavy Rain
7:35 PM 49.8 °F - 48.9 °F 97% 30.00 in 7.0 mi NE 8.1 mph 16.1 mph 0.08 in Rain Light Rain
7:55 PM 49.5 °F - 48.6 °F 97% 29.99 in 7.0 mi NE 12.7 mph 17.3 mph 0.10 in Rain Rain
8:15 PM 49.1 °F - 47.8 °F 95% 29.98 in 10.0 mi NE 13.8 mph 19.6 mph 0.01 in Rain Light Rain
8:35 PM 48.6 °F - 47.5 °F 96% 29.96 in 10.0 mi NE 13.8 mph 20.7 mph 0.01 in Rain Light Rain
8:55 PM 48.0 °F - 46.8 °F 95% 29.94 in 10.0 mi NE 11.5 mph 24.2 mph 0.02 in Rain Light Rain
9:15 PM 47.7 °F - 46.6 °F 96% 29.94 in 10.0 mi NE 13.8 mph 24.2 mph N/A Rain Light Rain
9:35 PM 47.5 °F - 46.4 °F 96% 29.92 in 10.0 mi NE 15.0 mph 21.9 mph 0.01 in Rain Rain
9:55 PM 47.3 °F - 46.4 °F 97% 29.90 in 10.0 mi NE 12.7 mph 20.7 mph 0.01 in Rain Light Rain
10:15 PM 47.3 °F - 46.4 °F 97% 29.88 in 10.0 mi NE 13.8 mph 25.3 mph N/A Rain Light Rain
10:35 PM 47.3 °F - 46.0 °F 95% 29.86 in 10.0 mi NE 16.1 mph 24.2 mph N/A Rain Light Rain
10:55 PM 47.3 °F - 46.0 °F 95% 29.85 in 7.0 mi NE 10.4 mph 24.2 mph 0.02 in Rain Rain
11:15 PM 46.8 °F - 45.9 °F 97% 29.82 in 5.0 mi NE 16.1 mph 23.0 mph 0.03 in Rain Rain
11:35 PM 46.4 °F 40.4 °F 45.5 °F 97% 29.79 in 5.0 mi NE 13.8 mph 24.2 mph 0.05 in Rain Light Rain